Location: Concepci�n
(32.5333°N, 117.1167°W)
Time: 19:54:59
(UTC+00:00)

Cosmos 1300 - Pass Details

Date: 08 May 2021
Orbit: 510 x 512 km, 82.5° (Epoch: 18 June)

Event Time Altitude Azimuth Distance (km) Brightness Sun altitude
Rises 12:07:39 0° 336° (NNW) 2,628 6.4 -9.9°
Reaches altitude 10° 12:10:07 10° 321° (NW) 1,737 5.3 -9.5°
Maximum altitude 12:13:04 22° 270° (W) 1,171 4.0 -8.9°
Drops below altitude 10° 12:16:00 10° 219° (SW) 1,727 4.8 -8.4°
Enters shadow 12:16:35 - 214° (SW) 1,924 5.1 -8.3°
